Bartlesville, OK

9:59 PM CDT on June 25, 2017 (GMT -0500)
Bartlesville Municipal

Weather History for KBVO - April, 2013

Change the Weather History Date:

Friday, April 26, 2013

  Actual Average Record
Temperature  
Mean Temperature 54 °F -  
Max Temperature 57 °F 75 °F 92 °F (1987)
Min Temperature 50 °F 51 °F 34 °F (1977)
Degree Days  
Heating Degree Days 12    
Growing Degree Days 4 (Base 50)    
Moisture  
Dew Point 50 °F    
Average Humidity 93    
Maximum Humidity 100    
Minimum Humidity 47    
Precipitation  
Precipitation 0.57 in - - ()
Sea Level Pressure  
Sea Level Pressure 30.14 in    
Wind  
Wind Speed 7 mph (ESE)    
Max Wind Speed 14 mph    
Max Gust Speed 22 mph    
Visibility 6 miles    
Events Rain , Thunderstorm    
Averages and records for this station are not official NWS values.
T = Trace of Precipitation, MM = Missing Value Source: NWS Daily Summary

Daily Weather History Graph

Daily Weather History Graph

Search for Another Location

Airport or City:

Trip Planner

Search our weather history database for the weather conditions in past years. The results will help you decide how hot, cold, wet, or windy it might be!

Date:

Astronomy

Apr. 26, 2013 Rise Set
Actual Time 6:35 AM CDT 8:08 PM CDT
Civil Twilight 6:08 AM CDT 8:35 PM CDT
Nautical Twilight 5:35 AM CDT 9:09 PM CDT
Astronomical Twilight 5:00 AM CDT 9:43 PM CDT
Moon 9:30 PM CDT 7:05 AM CDT
Length of Visible Light 14h 27m
Length of Day
13h 32m
Full, 99% of the Moon is Illuminated
Apr 26
Full
May 2
Last Quarter
May 9
New
May 17
First Quarter
May 24
Full

Hourly Weather History & Observations

Time (CDT) Temp. Dew Point Humidity Pressure Visibility Wind Dir Wind Speed Gust Speed Precip Events Conditions
12:53 AM 57.0 °F 37.0 °F 47% 30.14 in 10.0 mi SSE 9.2 mph - N/A   Partly Cloudy
2:53 AM 54.0 °F 46.0 °F 75% 30.12 in 10.0 mi South 4.6 mph - 0.00 in   Overcast
3:16 AM 53.6 °F 46.4 °F 77% 30.16 in 10.0 mi SW 5.8 mph - N/A Thunderstorm Mostly Cloudy
3:53 AM 52.0 °F 48.9 °F 89% 30.12 in 8.0 mi ESE 8.1 mph - 0.08 in Rain , Thunderstorm Light Thunderstorms and Rain
4:18 AM 51.8 °F 48.2 °F 88% 30.12 in 10.0 mi South 8.1 mph - 0.00 in   Scattered Clouds
4:53 AM 51.1 °F 48.9 °F 92% 30.09 in 10.0 mi South 3.5 mph - 0.01 in Rain Light Rain
5:53 AM 53.1 °F 48.0 °F 83% 30.11 in 10.0 mi SE 4.6 mph - 0.00 in   Overcast
6:53 AM 53.1 °F 48.9 °F 86% 30.15 in 10.0 mi NNE 9.2 mph - 0.04 in   Overcast
7:48 AM 53.6 °F 48.2 °F 82% 30.19 in 10.0 mi ENE 4.6 mph - N/A Thunderstorm Overcast
7:53 AM 53.1 °F 48.0 °F 83% 30.17 in 10.0 mi East 5.8 mph - 0.00 in Rain , Thunderstorm Light Rain
8:04 AM 51.8 °F 48.2 °F 88% 30.18 in 8.0 mi East 8.1 mph - 0.01 in Rain Light Rain
8:19 AM 51.8 °F 48.2 °F 88% 30.16 in 10.0 mi East 8.1 mph - 0.01 in Thunderstorm Thunderstorm
8:34 AM 51.8 °F 48.2 °F 88% 30.18 in 8.0 mi East 6.9 mph - 0.02 in Rain Light Rain
8:43 AM 51.8 °F 48.2 °F 88% 30.19 in 10.0 mi ENE 4.6 mph - 0.02 in Rain , Thunderstorm Light Rain
8:53 AM 52.0 °F 48.9 °F 89% 30.19 in 10.0 mi East 4.6 mph - 0.02 in Thunderstorm Overcast
9:24 AM 51.8 °F 48.2 °F 88% 30.24 in 2.0 mi East 6.9 mph - 0.10 in Rain , Thunderstorm Light Thunderstorms and Rain
9:32 AM 51.8 °F 48.2 °F 88% 30.23 in 4.0 mi East 6.9 mph - 0.10 in Rain Light Rain
9:53 AM 52.0 °F 48.9 °F 89% 30.22 in 8.0 mi East 12.7 mph - 0.11 in Rain Light Rain
10:11 AM 50.0 °F 48.2 °F 94% 30.24 in 5.0 mi East 11.5 mph 17.3 mph 0.03 in Rain , Thunderstorm Light Rain
10:42 AM 51.8 °F 48.2 °F 88% 30.22 in 10.0 mi ESE 10.4 mph 19.6 mph 0.05 in   Overcast
10:53 AM 51.1 °F 48.9 °F 92% 30.21 in 10.0 mi ESE 12.7 mph - 0.05 in   Overcast
11:53 AM 52.0 °F 48.0 °F 86% 30.19 in 10.0 mi ESE 13.8 mph 21.9 mph N/A   Overcast
12:30 PM 51.8 °F 50.0 °F 94% 30.18 in 5.0 mi East 9.2 mph - 0.02 in Rain , Thunderstorm Light Rain
12:45 PM 51.8 °F 50.0 °F 94% 30.18 in 10.0 mi ESE 10.4 mph 17.3 mph 0.02 in   Overcast
12:53 PM 51.1 °F 50.0 °F 96% 30.18 in 10.0 mi SE 9.2 mph 18.4 mph 0.02 in   Overcast
1:10 PM 51.8 °F 50.0 °F 94% 30.17 in 2.0 mi SE 9.2 mph 17.3 mph 0.05 in Rain Light Rain
1:18 PM 51.8 °F 50.0 °F 94% 30.18 in 8.0 mi SE 12.7 mph 19.6 mph 0.05 in   Overcast
1:53 PM 53.1 °F 51.1 °F 93% 30.15 in 5.0 mi SE 12.7 mph 18.4 mph 0.07 in Rain Light Rain
2:04 PM 53.6 °F 51.8 °F 94% 30.15 in 5.0 mi SE 12.7 mph 18.4 mph 0.01 in   Overcast
2:28 PM 51.8 °F 51.8 °F 100% 30.15 in 2.5 mi SE 12.7 mph - 0.01 in Rain Light Rain
2:45 PM 51.8 °F 51.8 °F 100% 30.14 in 3.0 mi SE 9.2 mph - 0.01 in   Overcast
2:53 PM 52.0 °F 51.1 °F 97% 30.13 in 3.0 mi SE 10.4 mph 18.4 mph 0.01 in   Overcast
3:53 PM 53.1 °F 50.0 °F 89% 30.11 in 10.0 mi SE 8.1 mph 19.6 mph 0.01 in   Overcast
4:33 PM 51.8 °F 51.8 °F 100% 30.11 in 2.5 mi SE 6.9 mph - N/A   Overcast
4:50 PM 51.8 °F 51.8 °F 100% 30.11 in 1.8 mi SE 6.9 mph - N/A   Overcast
4:53 PM 52.0 °F 51.1 °F 97% 30.10 in 1.5 mi ESE 6.9 mph - N/A   Overcast
5:01 PM 51.8 °F 51.8 °F 100% 30.11 in 1.2 mi ESE 3.5 mph - 0.00 in Rain Light Rain
5:08 PM 51.8 °F 51.8 °F 100% 30.11 in 2.0 mi East 4.6 mph - 0.00 in Rain Light Rain
5:27 PM 51.8 °F 51.8 °F 100% 30.11 in 1.2 mi East 4.6 mph - 0.01 in Rain Light Rain
5:48 PM 51.8 °F 51.8 °F 100% 30.11 in 1.0 mi East 4.6 mph - 0.04 in Rain Light Rain
5:53 PM 52.0 °F 52.0 °F 100% 30.10 in 1.2 mi East 3.5 mph - 0.05 in Rain Light Rain
6:06 PM 51.8 °F 51.8 °F 100% 30.11 in 1.2 mi East 4.6 mph - 0.01 in Rain Light Rain
6:19 PM 51.8 °F 51.8 °F 100% 30.11 in 1.8 mi East 4.6 mph - 0.02 in Rain Light Rain
6:44 PM 51.8 °F 51.8 °F 100% 30.10 in 2.0 mi East 4.6 mph - 0.04 in Rain Light Rain
6:53 PM 52.0 °F 52.0 °F 100% 30.09 in 2.0 mi East 5.8 mph - 0.04 in Rain Light Rain
7:53 PM 52.0 °F 52.0 °F 100% 30.10 in 2.0 mi ENE 4.6 mph - 0.01 in   Overcast
8:16 PM 51.8 °F 51.8 °F 100% 30.11 in 2.5 mi ENE 4.6 mph - 0.01 in Rain Light Rain
8:25 PM 51.8 °F 51.8 °F 100% 30.11 in 3.0 mi ENE 4.6 mph - 0.02 in   Overcast
8:37 PM 51.8 °F 51.8 °F 100% 30.12 in 2.5 mi NE 3.5 mph - 0.02 in   Overcast
8:53 PM 52.0 °F 52.0 °F 100% 30.12 in 2.5 mi NE 4.6 mph - 0.02 in   Overcast
9:46 PM 51.8 °F 51.8 °F 100% 30.14 in 3.0 mi NE 3.5 mph - 0.03 in   Overcast
9:53 PM 51.1 °F 51.1 °F 100% 30.13 in 3.0 mi ENE 5.8 mph - 0.03 in   Overcast
10:08 PM 51.8 °F 51.8 °F 100% 30.13 in 2.0 mi ENE 6.9 mph - N/A   Overcast
10:51 PM 51.8 °F 51.8 °F 100% 30.12 in 3.0 mi East 6.9 mph - N/A   Overcast
10:53 PM 51.1 °F 51.1 °F 100% 30.11 in 3.0 mi East 6.9 mph - N/A   Overcast
11:53 PM 51.1 °F 51.1 °F 100% 30.09 in 5.0 mi ENE 5.8 mph - N/A   Overcast